NOAA 16 DEB, 42372

Orbit data source: Space-Track

NOAA 16 DEB, 42372 is space debris in SSO originally from a launch on Thu, 21 Sep 2000 UTC launched from the Air Force Western Test Range (AFWTR). Debris objects in space refer to the collection of defunct objects orbiting the Earth. Examples of debris include non-operational satellites, rocket bodies, and fragments generated from explosions, collisions, or faulty payload assembly.

Loading next visibility...
NOAA 16 DEB details
Identifier
42372, 2000-055RQ
Orbit
SSO
Last TLE update1 day ago
Origin
Flag of USNOAA (US)
ManufacturerUnknown
MissionSpacecraft
Bus & MotorUnknown
MassUnknown
Launch date (UTC)
2000-09-21 (24 years ago)
Launch vehicleUnknown
Launch site
Air Force Western Test Range (AFWTR)
Object type
Payload
Rocket body
Debris
Shape & HBRUnknown
Radar Cross SectionSmall (<0.1 m²)

Expand to show TLE details & history

TLE from 1 day ago
0 NOAA 16 DEB
1 42372U 00055RQ  24348.10438680  .00006141  00000-0  25402-2 0  9996
2 42372  98.8520  90.1872 0012897 146.0072 214.1937 14.26966305448551
Epoch: 2024-12-13T02:30Z
Definitive object data (Epoch: 2024-12-13T02:30:19.019Z)
Latitude0.00002°
Longitude-29.6672°
Altitude812.473 km
Speed7.443 km/s
True Right ascension06h 00m 44s
True Declination0° 00' 00"
Sunlit
Object was in full shadow at TLE epoch
Visualization TLE readout
Latitude-52.57424°
Longitude-16.86383°
Altitude831.119 km
Speed7.432 km/s
Apparent Right ascension11h 46m 37s
Apparent Declination-69° 04' 60"
Sunlit
Object is in daylight
Visualization observer readout
Local Sidereal Time03:43:50
Azimuth152.884° SSE
Elevation-47.66°
Doppler factor1
Orbital elements
Apogee altitude808.302 km
Perigee altitude789.789 km
Semi-major axis7,177.182 km
Eccentricity0.0012897
Inclination98.852°
RAAN90.1872°
Arg. of periapsis146.0072°
True anomaly214.11075°
Mean anomaly214.1937°
Eccentric anomaly214.15222°
Mean motion3.56954 °/min
BSTAR0.0025402
Orbital period100.85 mins
Loading maneuver chart data...
Loading historical data...
Loading historical data...
Loading historical data...
Loading historical data...
Loading historical data...
Loading historical data...
Loading historical data...

NOAA 16 DEB Visibility forecast

Observer location: undefined°, undefined

Span
Click to sort rows by Start time (UTC) header in descending order
Start Az.
Max El. time (UTC)
Max El. Az.
Max El.
End time (UTC)
End Az.
6 mins2024-12-14 05:35:50.116Z97.349° ESE2024-12-14 05:38:50.116Z61.326° ENE15.776°2024-12-14 05:41:50.116Z25.412° NE
9 mins2024-12-14 07:13:50.116Z178.296° S2024-12-14 07:17:50.116Z249.67° W42.159°2024-12-14 07:22:50.116Z339.553° N
8 mins2024-12-14 19:29:50.116Z35.018° NE2024-12-14 19:32:50.116Z94.017° ESE36.426°2024-12-14 19:37:50.116Z173.604° S
6 mins2024-12-14 21:09:50.116Z331.494° NNW2024-12-14 21:11:50.116Z304.05° NW19.562°2024-12-14 21:15:50.116Z250.992° W
|